Northeast Philadelphia, PA

4:32 PM EDT on May 24, 2018 (GMT -0400)
Northeast Philadelphia

Weather History for KPNE - March, 2013

Change the Weather History Date:

Tuesday, March 19, 2013

  Actual Average Record
Temperature  
Mean Temperature 42 °F -  
Max Temperature 50 °F 49 °F 75 °F (2012)
Min Temperature 35 °F 31 °F 24 °F (2015)
Degree Days  
Heating Degree Days 22    
Moisture  
Dew Point 33 °F    
Average Humidity 77    
Maximum Humidity 100    
Minimum Humidity 33    
Precipitation  
Precipitation 0.28 in - - ()
Sea Level Pressure  
Sea Level Pressure 29.79 in    
Wind  
Wind Speed 11 mph (North)    
Max Wind Speed 17 mph    
Max Gust Speed 30 mph    
Visibility 7 miles    
Events Rain    
Averages and records for this station are not official NWS values.
T = Trace of Precipitation, MM = Missing Value Source: NWS Daily Summary

Daily Weather History Graph

Daily Weather History Graph

Search for Another Location

Airport or City:

Astronomy

Mar. 19, 2013 Rise Set
Actual Time 7:04 AM EDT 7:11 PM EDT
Civil Twilight 6:37 AM EDT 7:38 PM EDT
Nautical Twilight 6:06 AM EDT 8:10 PM EDT
Astronomical Twilight 5:34 AM EDT 8:42 PM EDT
Moon 11:52 AM EDT (3/19) 1:56 AM EDT (3/19)
Length of Visible Light 13h 00m
Length of Day
12h 06m
Waxing Crescent, 49% of the Moon is Illuminated
Mar 19
Waxing Crescent
Mar 19
First Quarter
Mar 27
Full
Apr 3
Last Quarter
Apr 10
New

Hourly Weather History & Observations

Time (EDT) Temp. Windchill Dew Point Humidity Pressure Visibility Wind Dir Wind Speed Gust Speed Precip Events Conditions
12:54 AM 37.9 °F 30.0 °F 36.0 °F 93% 29.90 in 5.0 mi East 12.7 mph 19.6 mph 0.04 in Rain Light Rain
1:54 AM 37.9 °F 30.5 °F 37.0 °F 97% 29.87 in 8.0 mi NE 11.5 mph - 0.02 in Rain Light Rain
2:54 AM 37.9 °F 30.9 °F 37.0 °F 97% 29.85 in 5.0 mi NE 10.4 mph - 0.09 in Rain Light Rain
3:54 AM 37.9 °F 29.6 °F 36.0 °F 93% 29.83 in 6.0 mi NE 13.8 mph 20.7 mph 0.04 in Rain Light Rain
4:54 AM 37.9 °F 32.1 °F 36.0 °F 93% 29.81 in 10.0 mi ENE 8.1 mph - 0.00 in   Overcast
5:54 AM 37.0 °F 31.0 °F 35.1 °F 93% 29.79 in 10.0 mi NNE 8.1 mph - N/A   Overcast
6:54 AM 37.0 °F 29.8 °F 35.1 °F 93% 29.79 in 10.0 mi NE 10.4 mph - N/A   Overcast
7:25 AM 37.4 °F 30.8 °F 35.6 °F 93% 29.77 in 3.0 mi NE 9.2 mph - N/A   Overcast
7:33 AM 37.4 °F 30.8 °F 35.6 °F 93% 29.77 in 2.0 mi ENE 9.2 mph - N/A   Overcast
7:45 AM 37.4 °F 31.4 °F 35.6 °F 93% 29.78 in 1.8 mi NE 8.1 mph - N/A   Overcast
7:54 AM 37.0 °F 29.8 °F 36.0 °F 96% 29.77 in 1.8 mi NE 10.4 mph - N/A   Overcast
8:18 AM 37.4 °F 31.4 °F 35.6 °F 93% 29.77 in 2.0 mi NE 8.1 mph - N/A   Overcast
8:54 AM 37.0 °F 33.3 °F 36.0 °F 96% 29.78 in 2.0 mi North 4.6 mph - 0.01 in Rain Light Rain
9:10 AM 37.4 °F 32.8 °F 35.6 °F 93% 29.78 in 1.8 mi North 5.8 mph - 0.00 in Rain Light Rain
9:41 AM 37.4 °F 30.8 °F 35.6 °F 93% 29.79 in 2.0 mi NNW 9.2 mph - 0.01 in Rain Rain
9:54 AM 37.0 °F 31.0 °F 35.1 °F 93% 29.80 in 3.0 mi NNW 8.1 mph - 0.02 in Rain Light Rain
10:16 AM 35.6 °F 28.6 °F 35.6 °F 100% 29.81 in 2.5 mi NW 9.2 mph - 0.01 in   Overcast
10:24 AM 35.6 °F 28.6 °F 35.6 °F 100% 29.80 in 2.0 mi NNW 9.2 mph - 0.01 in   Overcast
10:54 AM 37.0 °F 31.0 °F 35.1 °F 93% 29.80 in 5.0 mi NNW 8.1 mph - 0.02 in Rain Light Rain
11:54 AM 39.0 °F 31.8 °F 36.0 °F 89% 29.80 in 10.0 mi NW 11.5 mph - 0.04 in   Overcast
12:13 PM 39.2 °F 32.0 °F 35.6 °F 87% 29.80 in 10.0 mi NNW 11.5 mph - N/A   Overcast
12:54 PM 42.1 °F 37.7 °F 37.9 °F 85% 29.78 in 10.0 mi NW 6.9 mph - N/A   Overcast
1:29 PM 44.6 °F 38.1 °F 37.4 °F 76% 29.76 in 10.0 mi NNW 13.8 mph 18.4 mph N/A   Mostly Cloudy
1:38 PM 46.4 °F 41.9 °F 37.4 °F 71% 29.75 in 10.0 mi North 9.2 mph 18.4 mph N/A   Scattered Clouds
1:54 PM 46.9 °F - 36.0 °F 66% 29.75 in 10.0 mi North 17.3 mph 21.9 mph N/A   Scattered Clouds
2:54 PM 48.0 °F - 33.1 °F 56% 29.75 in 10.0 mi NW 15.0 mph - N/A   Mostly Cloudy
3:54 PM 50.0 °F - 30.0 °F 46% 29.75 in 10.0 mi WNW 12.7 mph 21.9 mph N/A   Mostly Cloudy
4:54 PM 50.0 °F - 28.9 °F 44% 29.74 in 10.0 mi NW 10.4 mph 19.6 mph N/A   Partly Cloudy
5:54 PM 50.0 °F - 28.0 °F 43% 29.73 in 10.0 mi WNW 9.2 mph 18.4 mph N/A   Clear
6:54 PM 48.9 °F - 28.0 °F 44% 29.74 in 10.0 mi WNW 9.2 mph - 0.00 in   Overcast
7:54 PM 46.0 °F 41.0 °F 28.0 °F 50% 29.75 in 10.0 mi West 10.4 mph - N/A   Clear
8:54 PM 46.9 °F - 19.0 °F 33% 29.78 in 10.0 mi NW 15.0 mph 21.9 mph N/A   Clear
9:54 PM 42.1 °F 34.9 °F 17.1 °F 37% 29.84 in 10.0 mi NNW 13.8 mph 29.9 mph N/A   Clear
10:54 PM 39.0 °F 30.3 °F 17.1 °F 41% 29.86 in 10.0 mi WNW 16.1 mph 29.9 mph N/A   Clear
11:54 PM 37.0 °F 29.3 °F 18.0 °F 46% 29.88 in 10.0 mi NW 11.5 mph - N/A   Mostly Cloudy